Year,Month,Day,Hour,Minute,Value (Times are PST for temperature in C)
2014,04,14,00,00,3.70
2014,04,14,00,01,3.60
2014,04,14,00,02,3.60
2014,04,14,00,03,3.60
2014,04,14,00,04,3.60
2014,04,14,00,05,3.60
2014,04,14,00,06,3.60
2014,04,14,00,07,3.50
2014,04,14,00,08,3.50
2014,04,14,00,09,3.50
2014,04,14,00,10,3.50
2014,04,14,00,11,3.40
2014,04,14,00,12,3.40
2014,04,14,00,13,3.40
2014,04,14,00,14,3.40
2014,04,14,00,15,3.40
2014,04,14,00,16,3.40
2014,04,14,00,17,3.40
2014,04,14,00,18,3.40
2014,04,14,00,19,3.30
2014,04,14,00,20,3.30
2014,04,14,00,21,3.30
2014,04,14,00,22,3.30
2014,04,14,00,23,3.30
2014,04,14,00,24,3.30
2014,04,14,00,25,3.30
2014,04,14,00,26,3.30
2014,04,14,00,27,3.20
2014,04,14,00,28,3.20
2014,04,14,00,29,3.20
2014,04,14,00,30,3.20
2014,04,14,00,31,3.20
2014,04,14,00,32,3.20
2014,04,14,00,33,3.20
2014,04,14,00,34,3.20
2014,04,14,00,35,3.20
2014,04,14,00,36,3.20
2014,04,14,00,37,3.10
2014,04,14,00,38,3.10
2014,04,14,00,39,3.10
2014,04,14,00,40,3.10
2014,04,14,00,41,3.10
2014,04,14,00,42,3.10
2014,04,14,00,43,3.00
2014,04,14,00,44,3.00
2014,04,14,00,45,3.00
2014,04,14,00,46,2.90
2014,04,14,00,47,2.90
2014,04,14,00,48,2.90
2014,04,14,00,49,2.90
2014,04,14,00,50,2.90
2014,04,14,00,51,2.80
2014,04,14,00,52,2.80
2014,04,14,00,53,2.80
2014,04,14,00,54,2.80
2014,04,14,00,55,2.80
2014,04,14,00,56,2.80
2014,04,14,00,57,2.80
2014,04,14,00,58,2.70
2014,04,14,00,59,2.70
2014,04,14,01,00,2.70
2014,04,14,01,01,2.70
2014,04,14,01,02,2.70
2014,04,14,01,03,2.70
2014,04,14,01,04,2.70
2014,04,14,01,05,2.60
2014,04,14,01,06,2.60
2014,04,14,01,07,2.60
2014,04,14,01,08,2.60
2014,04,14,01,09,2.60
2014,04,14,01,10,2.50
2014,04,14,01,11,2.50
2014,04,14,01,12,2.50
2014,04,14,01,13,2.50
2014,04,14,01,14,2.40
2014,04,14,01,15,2.40
2014,04,14,01,16,2.40
2014,04,14,01,17,2.40
2014,04,14,01,18,2.30
2014,04,14,01,19,2.30
2014,04,14,01,20,2.30
2014,04,14,01,21,2.30
2014,04,14,01,22,2.30
2014,04,14,01,23,2.20
2014,04,14,01,24,2.20
2014,04,14,01,25,2.20
2014,04,14,01,26,2.20
2014,04,14,01,27,2.10
2014,04,14,01,28,2.10
2014,04,14,01,29,2.10
2014,04,14,01,30,2.10
2014,04,14,01,31,2.00
2014,04,14,01,32,2.00
2014,04,14,01,33,2.00
2014,04,14,01,34,1.90
2014,04,14,01,35,1.90
2014,04,14,01,36,1.90
2014,04,14,01,37,1.90
2014,04,14,01,38,1.90
2014,04,14,01,39,1.80
2014,04,14,01,40,1.80
2014,04,14,01,41,1.80
2014,04,14,01,42,1.80
2014,04,14,01,43,1.80
2014,04,14,01,44,1.70
2014,04,14,01,45,1.70
2014,04,14,01,46,1.70
2014,04,14,01,47,1.70
2014,04,14,01,48,1.70
2014,04,14,01,49,1.60
2014,04,14,01,50,1.60
2014,04,14,01,51,1.60
2014,04,14,01,52,1.50
2014,04,14,01,53,1.50
2014,04,14,01,54,1.50
2014,04,14,01,55,1.40
2014,04,14,01,56,1.40
2014,04,14,01,57,1.40
2014,04,14,01,58,1.30
2014,04,14,01,59,1.30
2014,04,14,02,00,1.30
2014,04,14,02,01,1.30
2014,04,14,02,02,1.30
2014,04,14,02,03,1.30
2014,04,14,02,04,1.30
2014,04,14,02,05,1.30
2014,04,14,02,06,1.30
2014,04,14,02,07,1.30
2014,04,14,02,08,1.30
2014,04,14,02,09,1.30
2014,04,14,02,10,1.30
2014,04,14,02,11,1.30
2014,04,14,02,12,1.20
2014,04,14,02,13,1.20
2014,04,14,02,14,1.20
2014,04,14,02,15,1.20
2014,04,14,02,16,1.20
2014,04,14,02,17,1.20
2014,04,14,02,18,1.10
2014,04,14,02,19,1.10
2014,04,14,02,20,1.10
2014,04,14,02,21,1.10
2014,04,14,02,22,1.10
2014,04,14,02,23,1.10
2014,04,14,02,24,1.10
2014,04,14,02,25,1.00
2014,04,14,02,26,1.00
2014,04,14,02,27,1.00
2014,04,14,02,28,1.00
2014,04,14,02,29,0.90
2014,04,14,02,30,0.90
2014,04,14,02,31,0.90
2014,04,14,02,32,0.90
2014,04,14,02,33,0.90
2014,04,14,02,34,0.90
2014,04,14,02,35,0.90
2014,04,14,02,36,0.90
2014,04,14,02,37,0.80
2014,04,14,02,38,0.80
2014,04,14,02,39,0.80
2014,04,14,02,40,0.80
2014,04,14,02,41,0.80
2014,04,14,02,42,0.80
2014,04,14,02,43,0.80
2014,04,14,02,44,0.80
2014,04,14,02,45,0.80
2014,04,14,02,46,0.80
2014,04,14,02,47,0.80
2014,04,14,02,48,0.70
2014,04,14,02,49,0.70
2014,04,14,02,50,0.70
2014,04,14,02,51,0.70
2014,04,14,02,52,0.70
2014,04,14,02,53,0.70
2014,04,14,02,54,0.70
2014,04,14,02,55,0.70
2014,04,14,02,56,0.70
2014,04,14,02,57,0.70
2014,04,14,02,58,0.70
2014,04,14,02,59,0.60
2014,04,14,03,00,0.60
2014,04,14,03,01,0.60
2014,04,14,03,02,0.60
2014,04,14,03,03,0.60
2014,04,14,03,04,0.60
2014,04,14,03,05,0.60
2014,04,14,03,06,0.50
2014,04,14,03,07,0.50
2014,04,14,03,08,0.50
2014,04,14,03,09,0.50
2014,04,14,03,10,0.50
2014,04,14,03,11,0.40
2014,04,14,03,12,0.40
2014,04,14,03,13,0.40
2014,04,14,03,14,0.40
2014,04,14,03,15,0.40
2014,04,14,03,16,0.30
2014,04,14,03,17,0.30
2014,04,14,03,18,0.30
2014,04,14,03,19,0.30
2014,04,14,03,20,0.30
2014,04,14,03,21,0.30
2014,04,14,03,22,0.30
2014,04,14,03,23,0.30
2014,04,14,03,24,0.30
2014,04,14,03,25,0.30
2014,04,14,03,26,0.30
2014,04,14,03,27,0.20
2014,04,14,03,28,0.20
2014,04,14,03,29,0.20
2014,04,14,03,30,0.20
2014,04,14,03,31,0.20
2014,04,14,03,32,0.20
2014,04,14,03,33,0.10
2014,04,14,03,34,0.10
2014,04,14,03,35,0.10
2014,04,14,03,36,0.10
2014,04,14,03,37,0.10
2014,04,14,03,38,0.10
2014,04,14,03,39,0.10
2014,04,14,03,40,0.00
2014,04,14,03,41,0.00
2014,04,14,03,42,0.00
2014,04,14,03,43,0.00
2014,04,14,03,44,0.00
2014,04,14,03,45,-0.10
2014,04,14,03,46,-0.10
2014,04,14,03,47,-0.10
2014,04,14,03,48,-0.10
2014,04,14,03,49,-0.10
2014,04,14,03,50,-0.10
2014,04,14,03,51,-0.10
2014,04,14,03,52,-0.10
2014,04,14,03,53,-0.10
2014,04,14,03,54,-0.20
2014,04,14,03,55,-0.20
2014,04,14,03,56,-0.20
2014,04,14,03,57,-0.20
2014,04,14,03,58,-0.20
2014,04,14,03,59,-0.20
2014,04,14,04,00,-0.20
2014,04,14,04,01,-0.30
2014,04,14,04,02,-0.30
2014,04,14,04,03,-0.30
2014,04,14,04,04,-0.30
2014,04,14,04,05,-0.30
2014,04,14,04,06,-0.30
2014,04,14,04,07,-0.30
2014,04,14,04,08,-0.30
2014,04,14,04,09,-0.30
2014,04,14,04,10,-0.40
2014,04,14,04,11,-0.40
2014,04,14,04,12,-0.40
2014,04,14,04,13,-0.40
2014,04,14,04,14,-0.40
2014,04,14,04,15,-0.40
2014,04,14,04,16,-0.40
2014,04,14,04,17,-0.40
2014,04,14,04,18,-0.40
2014,04,14,04,19,-0.40
2014,04,14,04,20,-0.40
2014,04,14,04,21,-0.40
2014,04,14,04,22,-0.40
2014,04,14,04,23,-0.40
2014,04,14,04,24,-0.40
2014,04,14,04,25,-0.40
2014,04,14,04,26,-0.40
2014,04,14,04,27,-0.40
2014,04,14,04,28,-0.40
2014,04,14,04,29,-0.40
2014,04,14,04,30,-0.40
2014,04,14,04,31,-0.50
2014,04,14,04,32,-0.50
2014,04,14,04,33,-0.50
2014,04,14,04,34,-0.50
2014,04,14,04,35,-0.50
2014,04,14,04,36,-0.50
2014,04,14,04,37,-0.50
2014,04,14,04,38,-0.50
2014,04,14,04,39,-0.50
2014,04,14,04,40,-0.50
2014,04,14,04,41,-0.60
2014,04,14,04,42,-0.60
2014,04,14,04,43,-0.60
2014,04,14,04,44,-0.60
2014,04,14,04,45,-0.60
2014,04,14,04,46,-0.60
2014,04,14,04,47,-0.60
2014,04,14,04,48,-0.60
2014,04,14,04,49,-0.60
2014,04,14,04,50,-0.60
2014,04,14,04,51,-0.60
2014,04,14,04,52,-0.60
2014,04,14,04,53,-0.60
2014,04,14,04,54,-0.60
2014,04,14,04,55,-0.70
2014,04,14,04,56,-0.70
2014,04,14,04,57,-0.70
2014,04,14,04,58,-0.70
2014,04,14,04,59,-0.70
2014,04,14,05,00,-0.70
2014,04,14,05,01,-0.70
2014,04,14,05,02,-0.70
2014,04,14,05,03,-0.70
2014,04,14,05,04,-0.70
2014,04,14,05,05,-0.70
2014,04,14,05,06,-0.70
2014,04,14,05,07,-0.70
2014,04,14,05,08,-0.70
2014,04,14,05,09,-0.70
2014,04,14,05,10,-0.70
2014,04,14,05,11,-0.70
2014,04,14,05,12,-0.70
2014,04,14,05,13,-0.70
2014,04,14,05,14,-0.70
2014,04,14,05,15,-0.70
2014,04,14,05,16,-0.70
2014,04,14,05,17,-0.70
2014,04,14,05,18,-0.70
2014,04,14,05,19,-0.70
2014,04,14,05,20,-0.80
2014,04,14,05,21,-0.80
2014,04,14,05,22,-0.80
2014,04,14,05,23,-0.80
2014,04,14,05,24,-0.80
2014,04,14,05,25,-0.80
2014,04,14,05,26,-0.80
2014,04,14,05,27,-0.80
2014,04,14,05,28,-0.80
2014,04,14,05,29,-0.80
2014,04,14,05,30,-0.80
2014,04,14,05,31,-0.80
2014,04,14,05,32,-0.80
2014,04,14,05,33,-0.80
2014,04,14,05,34,-0.80
2014,04,14,05,35,-0.80
2014,04,14,05,36,-0.80
2014,04,14,05,37,-0.80
2014,04,14,05,38,-0.80
2014,04,14,05,39,-0.80
2014,04,14,05,40,-0.80
2014,04,14,05,41,-0.80
2014,04,14,05,42,-0.80
2014,04,14,05,43,-0.90
2014,04,14,05,44,-0.90
2014,04,14,05,45,-0.90
2014,04,14,05,46,-0.90
2014,04,14,05,47,-0.90
2014,04,14,05,48,-0.90
2014,04,14,05,49,-0.90
2014,04,14,05,50,-0.90
2014,04,14,05,51,-0.90
2014,04,14,05,52,-0.80
2014,04,14,05,53,-0.80
2014,04,14,05,54,-0.80
2014,04,14,05,55,-0.80
2014,04,14,05,56,-0.80
2014,04,14,05,57,-0.80
2014,04,14,05,58,-0.80
2014,04,14,05,59,-0.80
2014,04,14,06,00,-0.80
2014,04,14,06,01,-0.80
2014,04,14,06,02,-0.80
2014,04,14,06,03,-0.90
2014,04,14,06,04,-0.90
2014,04,14,06,05,-0.90
2014,04,14,06,06,-0.90
2014,04,14,06,07,-0.90
2014,04,14,06,08,-0.90
2014,04,14,06,09,-0.90
2014,04,14,06,10,-0.90
2014,04,14,06,11,-0.90
2014,04,14,06,12,-0.90
2014,04,14,06,13,-0.90
2014,04,14,06,14,-0.90
2014,04,14,06,15,-0.90
2014,04,14,06,16,-0.90
2014,04,14,06,17,-0.90
2014,04,14,06,18,-0.90
2014,04,14,06,19,-0.90
2014,04,14,06,20,-0.80
2014,04,14,06,21,-0.80
2014,04,14,06,22,-0.80
2014,04,14,06,23,-0.80
2014,04,14,06,24,-0.80
2014,04,14,06,25,-0.80
2014,04,14,06,26,-0.80
2014,04,14,06,27,-0.80
2014,04,14,06,28,-0.80
2014,04,14,06,29,-0.80
2014,04,14,06,30,-0.80
2014,04,14,06,31,-0.80
2014,04,14,06,32,-0.80
2014,04,14,06,33,-0.80
2014,04,14,06,34,-0.80
2014,04,14,06,35,-0.80
2014,04,14,06,36,-0.80
2014,04,14,06,37,-0.80
2014,04,14,06,38,-0.80
2014,04,14,06,39,-0.80
2014,04,14,06,40,-0.80
2014,04,14,06,41,-0.80
2014,04,14,06,42,-0.70
2014,04,14,06,43,-0.70
2014,04,14,06,44,-0.70
2014,04,14,06,45,-0.70
2014,04,14,06,46,-0.70
2014,04,14,06,47,-0.70
2014,04,14,06,48,-0.70
2014,04,14,06,49,-0.60
2014,04,14,06,50,-0.60
2014,04,14,06,51,-0.60
2014,04,14,06,52,-0.60
2014,04,14,06,53,-0.60
2014,04,14,06,54,-0.60
2014,04,14,06,55,-0.50
2014,04,14,06,56,-0.50
2014,04,14,06,57,-0.50
2014,04,14,06,58,-0.50
2014,04,14,06,59,-0.50
2014,04,14,07,00,-0.50
2014,04,14,07,01,-0.40
2014,04,14,07,02,-0.40
2014,04,14,07,03,-0.40
2014,04,14,07,04,-0.40
2014,04,14,07,05,-0.40
2014,04,14,07,06,-0.40
2014,04,14,07,07,-0.30
2014,04,14,07,08,-0.30
2014,04,14,07,09,-0.30
2014,04,14,07,10,-0.30
2014,04,14,07,11,-0.30
2014,04,14,07,12,-0.20
2014,04,14,07,13,-0.20
2014,04,14,07,14,-0.20
2014,04,14,07,15,-0.20
2014,04,14,07,16,-0.10
2014,04,14,07,17,-0.10
2014,04,14,07,18,-0.10
2014,04,14,07,19,0.00
2014,04,14,07,20,0.00
2014,04,14,07,21,0.00
2014,04,14,07,22,0.10
2014,04,14,07,23,0.10
2014,04,14,07,24,0.10
2014,04,14,07,25,0.20
2014,04,14,07,26,0.20
2014,04,14,07,27,0.30
2014,04,14,07,28,0.30
2014,04,14,07,29,0.30
2014,04,14,07,30,0.40
2014,04,14,07,31,0.40
2014,04,14,07,32,0.50
2014,04,14,07,33,0.50
2014,04,14,07,34,0.60
2014,04,14,07,35,0.60
2014,04,14,07,36,0.60
2014,04,14,07,37,0.70
2014,04,14,07,38,0.70
2014,04,14,07,39,0.70
2014,04,14,07,40,0.80
2014,04,14,07,41,0.80
2014,04,14,07,42,0.80
2014,04,14,07,43,0.90
2014,04,14,07,44,0.90
2014,04,14,07,45,1.00
2014,04,14,07,46,1.00
2014,04,14,07,47,1.10
2014,04,14,07,48,1.20
2014,04,14,07,49,1.20
2014,04,14,07,50,1.30
2014,04,14,07,51,1.30
2014,04,14,07,52,1.30
2014,04,14,07,53,1.30
2014,04,14,07,54,1.30
2014,04,14,07,55,1.40
2014,04,14,07,56,1.40
2014,04,14,07,57,1.50
2014,04,14,07,58,1.50
2014,04,14,07,59,1.60
2014,04,14,08,00,1.60
2014,04,14,08,01,1.70
2014,04,14,08,02,1.70
2014,04,14,08,03,1.70
2014,04,14,08,04,1.80
2014,04,14,08,05,1.80
2014,04,14,08,06,1.90
2014,04,14,08,07,1.90
2014,04,14,08,08,2.00
2014,04,14,08,09,2.00
2014,04,14,08,10,2.10
2014,04,14,08,11,2.10
2014,04,14,08,12,2.10
2014,04,14,08,13,2.20
2014,04,14,08,14,2.20
2014,04,14,08,15,2.30
2014,04,14,08,16,2.30
2014,04,14,08,17,2.40
2014,04,14,08,18,2.40
2014,04,14,08,19,2.50
2014,04,14,08,20,2.50
2014,04,14,08,21,2.60
2014,04,14,08,22,2.60
2014,04,14,08,23,2.70
2014,04,14,08,24,2.70
2014,04,14,08,25,2.80
2014,04,14,08,26,2.80
2014,04,14,08,27,2.90
2014,04,14,08,28,2.90
2014,04,14,08,29,3.00
2014,04,14,08,30,3.00
2014,04,14,08,31,3.10
2014,04,14,08,32,3.10
2014,04,14,08,33,3.20
2014,04,14,08,34,3.20
2014,04,14,08,35,3.30
2014,04,14,08,36,3.30
2014,04,14,08,37,3.30
2014,04,14,08,38,3.40
2014,04,14,08,39,3.40
2014,04,14,08,40,3.40
2014,04,14,08,41,3.50
2014,04,14,08,42,3.50
2014,04,14,08,43,3.60
2014,04,14,08,44,3.70
2014,04,14,08,45,3.70
2014,04,14,08,46,3.80
2014,04,14,08,47,3.80
2014,04,14,08,48,3.90
2014,04,14,08,49,3.90
2014,04,14,08,50,4.00
2014,04,14,08,51,4.10
2014,04,14,08,52,4.20
2014,04,14,08,53,4.20
2014,04,14,08,54,4.30
2014,04,14,08,55,4.30
2014,04,14,08,56,4.40
2014,04,14,08,57,4.50
2014,04,14,08,58,4.60
2014,04,14,08,59,4.70
2014,04,14,09,00,4.70
2014,04,14,09,01,4.80
2014,04,14,09,02,4.90
2014,04,14,09,03,5.00
2014,04,14,09,04,5.10
2014,04,14,09,05,5.20
2014,04,14,09,06,5.20
2014,04,14,09,07,5.30
2014,04,14,09,08,5.40
2014,04,14,09,09,5.50
2014,04,14,09,10,5.50
2014,04,14,09,11,5.60
2014,04,14,09,12,5.60
2014,04,14,09,13,5.70
2014,04,14,09,14,5.70
2014,04,14,09,15,5.80
2014,04,14,09,16,5.80
2014,04,14,09,17,5.80
2014,04,14,09,18,5.80
2014,04,14,09,19,5.90
2014,04,14,09,20,5.90
2014,04,14,09,21,5.90
2014,04,14,09,22,5.90
2014,04,14,09,23,6.00
2014,04,14,09,24,6.00
2014,04,14,09,25,6.10
2014,04,14,09,26,6.10
2014,04,14,09,27,6.10
2014,04,14,09,28,6.20
2014,04,14,09,29,6.20
2014,04,14,09,30,6.30
2014,04,14,09,31,6.30
2014,04,14,09,32,6.40
2014,04,14,09,33,6.60
2014,04,14,09,34,6.70
2014,04,14,09,35,6.80
2014,04,14,09,36,6.90
2014,04,14,09,37,7.00
2014,04,14,09,38,7.00
2014,04,14,09,39,7.20
2014,04,14,09,40,7.20
2014,04,14,09,41,7.30
2014,04,14,09,42,7.50
2014,04,14,09,43,7.60
2014,04,14,09,44,7.70
2014,04,14,09,45,7.80
2014,04,14,09,46,7.90
2014,04,14,09,47,8.10
2014,04,14,09,48,8.20
2014,04,14,09,49,8.30
2014,04,14,09,50,8.40
2014,04,14,09,51,8.50
2014,04,14,09,52,8.50
2014,04,14,09,53,8.60
2014,04,14,09,54,8.60
2014,04,14,09,55,8.60
2014,04,14,09,56,8.60
2014,04,14,09,57,8.60
2014,04,14,09,58,8.60
2014,04,14,09,59,8.60
2014,04,14,10,00,8.60
2014,04,14,10,01,8.60
2014,04,14,10,02,8.70
2014,04,14,10,03,8.70
2014,04,14,10,04,8.70
2014,04,14,10,05,8.70
2014,04,14,10,06,8.80
2014,04,14,10,07,8.90
2014,04,14,10,08,8.90
2014,04,14,10,09,9.00
2014,04,14,10,10,9.00
2014,04,14,10,11,9.10
2014,04,14,10,12,9.10
2014,04,14,10,13,9.10
2014,04,14,10,14,9.20
2014,04,14,10,15,9.20
2014,04,14,10,16,9.20
2014,04,14,10,17,9.30
2014,04,14,10,18,9.30
2014,04,14,10,19,9.30
2014,04,14,10,20,9.30
2014,04,14,10,21,9.30
2014,04,14,10,22,9.30
2014,04,14,10,23,9.30
2014,04,14,10,24,9.30
2014,04,14,10,25,9.30
2014,04,14,10,26,9.30
2014,04,14,10,27,9.30
2014,04,14,10,28,9.30
2014,04,14,10,29,9.30
2014,04,14,10,30,9.30
2014,04,14,10,31,9.40
2014,04,14,10,32,9.50
2014,04,14,10,33,9.50
2014,04,14,10,34,9.60
2014,04,14,10,35,9.60
2014,04,14,10,36,9.70
2014,04,14,10,37,9.70
2014,04,14,10,38,9.70
2014,04,14,10,39,9.70
2014,04,14,10,40,9.70
2014,04,14,10,41,9.80
2014,04,14,10,42,9.80
2014,04,14,10,43,9.80
2014,04,14,10,44,9.90
2014,04,14,10,45,9.90
2014,04,14,10,46,10.00
2014,04,14,10,47,10.00
2014,04,14,10,48,10.10
2014,04,14,10,49,10.20
2014,04,14,10,50,10.20
2014,04,14,10,51,10.30
2014,04,14,10,52,10.30
2014,04,14,10,53,10.40
2014,04,14,10,54,10.50
2014,04,14,10,55,10.60
2014,04,14,10,56,10.70
2014,04,14,10,57,10.80
2014,04,14,10,58,10.80
2014,04,14,10,59,10.80
2014,04,14,11,00,10.90
2014,04,14,11,01,10.90
2014,04,14,11,02,11.00
2014,04,14,11,03,11.10
2014,04,14,11,04,11.10
2014,04,14,11,05,11.20
2014,04,14,11,06,11.30
2014,04,14,11,07,11.30
2014,04,14,11,08,11.30
2014,04,14,11,09,11.30
2014,04,14,11,10,11.30
2014,04,14,11,11,11.30
2014,04,14,11,12,11.30
2014,04,14,11,13,11.40
2014,04,14,11,14,11.40
2014,04,14,11,15,11.50
2014,04,14,11,16,11.60
2014,04,14,11,17,11.60
2014,04,14,11,18,11.70
2014,04,14,11,19,11.80
2014,04,14,11,20,11.80
2014,04,14,11,21,11.90
2014,04,14,11,22,12.00
2014,04,14,11,23,12.10
2014,04,14,11,24,12.20
2014,04,14,11,25,12.20
2014,04,14,11,26,12.20
2014,04,14,11,27,12.30
2014,04,14,11,28,12.30
2014,04,14,11,29,12.30
2014,04,14,11,30,12.40
2014,04,14,11,31,12.50
2014,04,14,11,32,12.50
2014,04,14,11,33,12.60
2014,04,14,11,34,12.80
2014,04,14,11,35,12.90
2014,04,14,11,36,13.00
2014,04,14,11,37,13.10
2014,04,14,11,38,13.10
2014,04,14,11,39,13.10
2014,04,14,11,40,13.10
2014,04,14,11,41,13.20
2014,04,14,11,42,13.20
2014,04,14,11,43,13.30
2014,04,14,11,44,13.40
2014,04,14,11,45,13.50
2014,04,14,11,46,13.60
2014,04,14,11,47,13.60
2014,04,14,11,48,13.60
2014,04,14,11,49,13.60
2014,04,14,11,50,13.60
2014,04,14,11,51,13.60
2014,04,14,11,52,13.60
2014,04,14,11,53,13.70
2014,04,14,11,54,13.70
2014,04,14,11,55,13.80
2014,04,14,11,56,13.90
2014,04,14,11,57,13.90
2014,04,14,11,58,14.00
2014,04,14,11,59,14.10
2014,04,14,12,00,14.20
2014,04,14,12,01,14.20
2014,04,14,12,02,14.20
2014,04,14,12,03,14.30
2014,04,14,12,04,14.30
2014,04,14,12,05,14.30
2014,04,14,12,06,14.40
2014,04,14,12,07,14.40
2014,04,14,12,08,14.50
2014,04,14,12,09,14.60
2014,04,14,12,10,14.70
2014,04,14,12,11,14.80
2014,04,14,12,12,15.00
2014,04,14,12,13,15.00
2014,04,14,12,14,15.20
2014,04,14,12,15,15.30
2014,04,14,12,16,15.40
2014,04,14,12,17,15.60
2014,04,14,12,18,15.70
2014,04,14,12,19,15.70
2014,04,14,12,20,15.80
2014,04,14,12,21,15.90
2014,04,14,12,22,16.00
2014,04,14,12,23,16.10
2014,04,14,12,24,16.20
2014,04,14,12,25,16.30
2014,04,14,12,26,16.30
2014,04,14,12,27,16.50
2014,04,14,12,28,16.50
2014,04,14,12,29,16.60
2014,04,14,12,30,16.60
2014,04,14,12,31,16.70
2014,04,14,12,32,16.70
2014,04,14,12,33,16.70
2014,04,14,12,34,16.80
2014,04,14,12,35,16.80
2014,04,14,12,36,16.80
2014,04,14,12,37,16.80
2014,04,14,12,38,16.90
2014,04,14,12,39,16.90
2014,04,14,12,40,17.00
2014,04,14,12,41,17.00
2014,04,14,12,42,17.10
2014,04,14,12,43,17.10
2014,04,14,12,44,17.00
2014,04,14,12,45,17.00
2014,04,14,12,46,16.90
2014,04,14,12,47,16.80
2014,04,14,12,48,16.80
2014,04,14,12,49,16.90
2014,04,14,12,50,16.90
2014,04,14,12,51,17.00
2014,04,14,12,52,17.00
2014,04,14,12,53,17.10
2014,04,14,12,54,17.10
2014,04,14,12,55,17.20
2014,04,14,12,56,17.30
2014,04,14,12,57,17.30
2014,04,14,12,58,17.30
2014,04,14,12,59,17.20
2014,04,14,13,00,17.20
2014,04,14,13,01,17.20
2014,04,14,13,02,17.20
2014,04,14,13,03,17.20
2014,04,14,13,04,17.30
2014,04,14,13,05,17.30
2014,04,14,13,06,17.30
2014,04,14,13,07,17.30
2014,04,14,13,08,17.30
2014,04,14,13,09,17.30
2014,04,14,13,10,17.30
2014,04,14,13,11,17.30
2014,04,14,13,12,17.30
2014,04,14,13,13,17.30
2014,04,14,13,14,17.40
2014,04,14,13,15,17.40
2014,04,14,13,16,17.50
2014,04,14,13,17,17.50
2014,04,14,13,18,17.40
2014,04,14,13,19,17.40
2014,04,14,13,20,17.40
2014,04,14,13,21,17.50
2014,04,14,13,22,17.50
2014,04,14,13,23,17.50
2014,04,14,13,24,17.40
2014,04,14,13,25,17.40
2014,04,14,13,26,17.40
2014,04,14,13,27,17.30
2014,04,14,13,28,17.50
2014,04,14,13,29,17.60
2014,04,14,13,30,17.50
2014,04,14,13,31,17.50
2014,04,14,13,32,17.60
2014,04,14,13,33,17.70
2014,04,14,13,34,17.70
2014,04,14,13,35,17.80
2014,04,14,13,36,17.80
2014,04,14,13,37,17.80
2014,04,14,13,38,17.80
2014,04,14,13,39,17.80
2014,04,14,13,40,17.80
2014,04,14,13,41,17.80
2014,04,14,13,42,17.70
2014,04,14,13,43,17.70
2014,04,14,13,44,17.60
2014,04,14,13,45,17.50
2014,04,14,13,46,17.50
2014,04,14,13,47,17.40
2014,04,14,13,48,17.40
2014,04,14,13,49,17.40
2014,04,14,13,50,17.40
2014,04,14,13,51,17.40
2014,04,14,13,52,17.50
2014,04,14,13,53,17.50
2014,04,14,13,54,17.50
2014,04,14,13,55,17.40
2014,04,14,13,56,17.40
2014,04,14,13,57,17.50
2014,04,14,13,58,17.50
2014,04,14,13,59,17.70
2014,04,14,14,00,17.70
2014,04,14,14,01,17.80
2014,04,14,14,02,17.90
2014,04,14,14,03,18.00
2014,04,14,14,04,18.10
2014,04,14,14,05,18.10
2014,04,14,14,06,18.10
2014,04,14,14,07,18.20
2014,04,14,14,08,18.30
2014,04,14,14,09,18.40
2014,04,14,14,10,18.40
2014,04,14,14,11,18.40
2014,04,14,14,12,18.40
2014,04,14,14,13,18.40
2014,04,14,14,14,18.30
2014,04,14,14,15,18.30
2014,04,14,14,16,18.20
2014,04,14,14,17,18.20
2014,04,14,14,18,18.10
2014,04,14,14,19,18.00
2014,04,14,14,20,18.00
2014,04,14,14,21,18.00
2014,04,14,14,22,17.90
2014,04,14,14,23,17.90
2014,04,14,14,24,17.80
2014,04,14,14,25,17.80
2014,04,14,14,26,17.80
2014,04,14,14,27,17.80
2014,04,14,14,28,17.80
2014,04,14,14,29,17.80
2014,04,14,14,30,17.70
2014,04,14,14,31,17.80
2014,04,14,14,32,17.70
2014,04,14,14,33,17.60
2014,04,14,14,34,17.60
2014,04,14,14,35,17.50
2014,04,14,14,36,17.40
2014,04,14,14,37,17.50
2014,04,14,14,38,17.60
2014,04,14,14,39,17.70
2014,04,14,14,40,17.60
2014,04,14,14,41,17.60
2014,04,14,14,42,17.60
2014,04,14,14,43,17.50
2014,04,14,14,44,17.50
2014,04,14,14,45,17.50
2014,04,14,14,46,17.60
2014,04,14,14,47,17.60
2014,04,14,14,48,17.70
2014,04,14,14,49,17.70
2014,04,14,14,50,17.70
2014,04,14,14,51,17.60
2014,04,14,14,52,17.50
2014,04,14,14,53,17.40
2014,04,14,14,54,17.30
2014,04,14,14,55,17.20
2014,04,14,14,56,17.10
2014,04,14,14,57,17.10
2014,04,14,14,58,17.20
2014,04,14,14,59,17.10
2014,04,14,15,00,17.10
2014,04,14,15,01,17.10
2014,04,14,15,02,17.10
2014,04,14,15,03,17.00
2014,04,14,15,04,16.90
2014,04,14,15,05,16.80
2014,04,14,15,06,16.80
2014,04,14,15,07,16.70
2014,04,14,15,08,16.70
2014,04,14,15,09,16.70
2014,04,14,15,10,16.70
2014,04,14,15,11,16.60
2014,04,14,15,12,16.50
2014,04,14,15,13,16.40
2014,04,14,15,14,16.40
2014,04,14,15,15,16.40
2014,04,14,15,16,16.30
2014,04,14,15,17,16.30
2014,04,14,15,18,16.30
2014,04,14,15,19,16.30
2014,04,14,15,20,16.30
2014,04,14,15,21,16.30
2014,04,14,15,22,16.40
2014,04,14,15,23,16.40
2014,04,14,15,24,16.40
2014,04,14,15,25,16.30
2014,04,14,15,26,16.30
2014,04,14,15,27,16.20
2014,04,14,15,28,16.10
2014,04,14,15,29,16.10
2014,04,14,15,30,16.00
2014,04,14,15,31,15.90
2014,04,14,15,32,15.80
2014,04,14,15,33,15.80
2014,04,14,15,34,15.80
2014,04,14,15,35,15.80
2014,04,14,15,36,15.80
2014,04,14,15,37,15.90
2014,04,14,15,38,15.90
2014,04,14,15,39,16.00
2014,04,14,15,40,16.10
2014,04,14,15,41,16.20
2014,04,14,15,42,16.20
2014,04,14,15,43,16.20
2014,04,14,15,44,16.30
2014,04,14,15,45,16.30
2014,04,14,15,46,16.20
2014,04,14,15,47,16.20
2014,04,14,15,48,16.20
2014,04,14,15,49,16.20
2014,04,14,15,50,16.20
2014,04,14,15,51,16.20
2014,04,14,15,52,16.20
2014,04,14,15,53,16.20
2014,04,14,15,54,16.20
2014,04,14,15,55,16.20
2014,04,14,15,56,16.20
2014,04,14,15,57,16.20
2014,04,14,15,58,16.20
2014,04,14,15,59,16.20
2014,04,14,16,00,16.20
2014,04,14,16,01,16.20
2014,04,14,16,02,16.20
2014,04,14,16,03,16.20
2014,04,14,16,04,16.20
2014,04,14,16,05,16.20
2014,04,14,16,06,16.20
2014,04,14,16,07,16.30
2014,04,14,16,08,16.30
2014,04,14,16,09,16.30
2014,04,14,16,10,16.40
2014,04,14,16,11,16.50
2014,04,14,16,12,16.60
2014,04,14,16,13,16.60
2014,04,14,16,14,16.60
2014,04,14,16,15,16.60
2014,04,14,16,16,16.50
2014,04,14,16,17,16.40
2014,04,14,16,18,16.40
2014,04,14,16,19,16.40
2014,04,14,16,20,16.30
2014,04,14,16,21,16.30
2014,04,14,16,22,16.40
2014,04,14,16,23,16.40
2014,04,14,16,24,16.40
2014,04,14,16,25,16.50
2014,04,14,16,26,16.60
2014,04,14,16,27,16.60
2014,04,14,16,28,16.50
2014,04,14,16,29,16.50
2014,04,14,16,30,16.50
2014,04,14,16,31,16.60
2014,04,14,16,32,16.60
2014,04,14,16,33,16.60
2014,04,14,16,34,16.60
2014,04,14,16,35,16.60
2014,04,14,16,36,16.50
2014,04,14,16,37,16.40
2014,04,14,16,38,16.40
2014,04,14,16,39,16.40
2014,04,14,16,40,16.40
2014,04,14,16,41,16.40
2014,04,14,16,42,16.40
2014,04,14,16,43,16.50
2014,04,14,16,44,16.60
2014,04,14,16,45,16.60
2014,04,14,16,46,16.70
2014,04,14,16,47,16.70
2014,04,14,16,48,16.70
2014,04,14,16,49,16.60
2014,04,14,16,50,16.50
2014,04,14,16,51,16.40
2014,04,14,16,52,16.40
2014,04,14,16,53,16.40
2014,04,14,16,54,16.50
2014,04,14,16,55,16.50
2014,04,14,16,56,16.40
2014,04,14,16,57,16.30
2014,04,14,16,58,16.30
2014,04,14,16,59,16.20
2014,04,14,17,00,16.10
2014,04,14,17,01,16.10
2014,04,14,17,02,16.00
2014,04,14,17,03,16.10
2014,04,14,17,04,16.10
2014,04,14,17,05,16.10
2014,04,14,17,06,16.10
2014,04,14,17,07,16.20
2014,04,14,17,08,16.20
2014,04,14,17,09,16.10
2014,04,14,17,10,16.10
2014,04,14,17,11,16.00
2014,04,14,17,12,16.00
2014,04,14,17,13,16.00
2014,04,14,17,14,15.90
2014,04,14,17,15,15.80
2014,04,14,17,16,15.80
2014,04,14,17,17,15.80
2014,04,14,17,18,15.80
2014,04,14,17,19,15.80
2014,04,14,17,20,15.80
2014,04,14,17,21,15.80
2014,04,14,17,22,15.80
2014,04,14,17,23,15.80
2014,04,14,17,24,15.80
2014,04,14,17,25,15.80
2014,04,14,17,26,15.70
2014,04,14,17,27,15.70
2014,04,14,17,28,15.70
2014,04,14,17,29,15.60
2014,04,14,17,30,15.60
2014,04,14,17,31,15.60
2014,04,14,17,32,15.60
2014,04,14,17,33,15.50
2014,04,14,17,34,15.40
2014,04,14,17,35,15.30
2014,04,14,17,36,15.30
2014,04,14,17,37,15.20
2014,04,14,17,38,15.20